{"data":{"norad_id":69681,"intl_designator":"2026-145E","name":"STARLINK-37992","alt_names":[],"object_type":"PAYLOAD","status":"ACTIVE","operator":null,"country":"US","launch_date":"2026-06-25","launch_site_code":"AFWTR","launch_vehicle":null,"mission":null,"orbit_class":"UNKNOWN","rcs_meters":null,"size_class":null,"mass_kg":null,"dimensions":null,"purposes":["comms"],"wikipedia_slug":null,"has_3d_model":false,"image_url":null,"decayed_at":null,"tle_current":{"epoch":"2026-09-20T00:01:16.269600Z","epoch_age_seconds":64808,"freshness":"FRESH","line1":"1 69681U 26145E   26263.00088275  .00018014  00000+0  55878-3 0  9996","line2":"2 69681  97.2858 109.6242 0002644  85.6327 274.5217 15.33453457 13464","mean_motion":15.33453457,"eccentricity":0.0002644,"inclination_deg":97.2858,"raan_deg":109.6242,"arg_perigee_deg":85.6327,"mean_anomaly_deg":274.5217,"bstar":0.00055878,"rev_number":1346,"period_min":93.90568676386,"perigee_km":463.70855012647,"apogee_km":467.32747489709,"semimajor_km":6843.6550125118,"source":"CELESTRAK","updated_at":"2026-09-20T09:00:44.252693Z"}}}